Tracking 35331 objects as of 16-Sep-2026
HD Live streaming from Space Station
objects crossing your sky now

COSMOS 886 DEB

Track COSMOS 886 DEB now!
10-day predictions


NORAD ID: 9722
Int'l Code: 1976-126T
Launch date: December 27, 1976
Source: Commonwealth of Independent States (former USSR) (CIS)
Launch site: TYURATAM MISSILE AND SPACE COMPLEX (TTMTR)

Note: This is SATELLITE DEBRIS
Your satellite tracking list
Your tracking list is empty




NASA's NSSDC Master Catalog

Two Line Element Set (TLE):
1 09722U 76126T   26258.17628686  .00001189  00000-0  23997-2 0  9990
2 09722  65.7543 188.0448 0783648   5.8592 355.0945 12.55281901248278
Source of the keplerian elements: AFSPC